STSS DEMO 1 (USA 208) - Orbit

View from above orbital plane
View from above orbital plane
View from above satellite
View from above satellite

Ground track
Ground track

The orbit data is extracted from the following two-line orbital elements,

1 35937U 09052A   13124.94175596 0.00000000  00000-0  00000-0 0    03
2 35937  57.9897 130.2073 0010464 195.2229 164.7771 12.79095988    06
Epoch (UTC): 04 May 2013 22:36:07
Eccentricity: 0.0010464
inclination: 57.9897°
perigee height: 1337 km
apogee height: 1353 km
right ascension of ascending node: 130.2073°
argument of perigee: 195.2229°
revolutions per day: 12.79095988
mean anomaly at epoch: 164.7771°
orbit number at epoch: 0

The dashed part of the orbit path shows where the satellite is in the earth's shadow,  

Developed and maintained by Chris Peat, Heavens-Above GmbH. Please read the updated FAQ before sending e-mail. Imprint. DLR